Weather in Klimavichy

Belarus     53°36′34″N   31°57′44″E
temp.,
°C
wind,
m/s
gust,
m/s
humid.,
%
clouds,
%
prec.,
mm/h
press.,
hPa
HPBL,
m
11 april, sun
sun1100:00+4s412725 0.0 1025216
03:00+3s411755 0.0 1026199
06:00+3s48785 0.0 1026131
09:00+7ssw46632 0.0 1027242
12:00+12s56490 0.0 1028749
15:00+14s44420 0.0 10281234
18:00+14sse24490 0.0 1028188
21:00+9se34640 0.0 102947
12 april, mon
mon1200:00+7se34690 0.0 103056
03:00+6ese34740 0.0 103048
06:00+4e35770 0.0 102983
09:00+8e476399 0.0 1028342
12:00+13e5640100 0.0 1026875
15:00+13ese5656100 0.0 1025996
18:00+9e4693100 1.3 1024277
21:00+9ese3791100 1.4 1024227
13 april, tue
tue1300:00+9ese2290100 0.0 102332
03:00+9ese1190100 0.0 102210
06:00+9ene2391100 0.0 102146
09:00+11e3585100 0.0 1021206
12:00+13ese3780100 0.0 1020306
15:00+15sse2675100 0.0 1019715
18:00+14s2480100 0.3 1018234
21:00+12se3489100 0.4 101889
14 april, wed
wed1400:00+11se3890100 0.1 1018207
03:00+11sse499299 0.1 1018320
06:00+8se3894100 0.0 1018172
09:00+12sse4880100 0.0 1018434
12:00+10se3790100 0.1 1018285
15:00+12sse248181 0.1 1017454
18:00+12se2286100 0.2 101663
21:00+11se239285 0.4 101775
15 april, thu
thu1500:00+9s2295100 0.0 101716
03:00+8nw1191100 0.0 101610
06:00+8n2292100 0.0 101621
09:00+10ene2493100 0.1 1016184
12:00+10nw1292100 0.5 1016108
15:00+13nnw1172100 1.3 101557
18:00+12nne5877100 0.2 1014261
21:00+11nne71485100 0.2 1014405